Regional Weather Roundup
Issued by NWS Boston, MA

Home | Current Version | Previous Version | Text Only | Print | Product List | Glossary On
Versions: 1 2 3 4 5 6 7 8 9 10 11 12 13 14 15 16 17 18 19 20 21 22 23 24 25 26 27 28 29 30 31 32 33 34 35 36 37 38 39 40 41 42 43 44 45 46 47 48 49
000
ASUS41 KBOX 181110
RWRBOX

REGIONAL WEATHER ROUNDUP
NATIONAL WEATHER SERVICE TAUNTON MA
700 AM EDT THU SEP 18 2014

NOTE:  "FAIR" INDICATES FEW OR NO CLOUDS BELOW 12,000 FEET WITH NO
SIGNIFICANT WEATHER AND/OR OBSTRUCTIONS TO VISIBILITY.  THE FOLLOWING
OBSERVATION LOCATIONS DO NOT REPORT PRESENT WEATHER...PROVINCETOWN...
SMITHFIELD...BLOCK ISLAND...KEENE...AND OXFORD.

MAZALL-181200-
EASTERN MASSACHUSETTS

CITY           SKY/WX    TMP DP  RH WIND       PRES   REMARKS
BOSTON         PTCLDY    57  46  66 W7        29.96R
BEVERLY        CLEAR     45  42  89 CALM      29.96R
LAWRENCE       CLEAR     48  45  89 SW5       29.98R
BEDFORD        CLEAR     41  40  96 CALM      29.95R
BLUE HILL        N/A     53  44  71 W12       29.95R
NORWOOD        CLEAR     38  36  92 CALM      29.96S
MARSHFIELD     NOT AVBL
PLYMOUTH       CLEAR     43  39  86 CALM      29.97R
TAUNTON        CLEAR     38  37  97 CALM      29.97R FOG
NEW BEDFORD    CLEAR     42  41  96 CALM      29.96R
$$

MAZALL-181200-
CAPE COD AND THE ISLANDS

CITY           SKY/WX    TMP DP  RH WIND       PRES   REMARKS
FALMOUTH       CLEAR     45  43  93 NW3       29.96S
HYANNIS        CLEAR     46  42  86 CALM      29.95R
CHATHAM        CLEAR     52  48  86 CALM      29.96R
PROVINCETOWN   CLEAR     57  50  77 W6        29.96R
NANTUCKET      PTCLDY    51  46  83 CALM      29.95R
MARTHAS VNYRD  CLEAR     41  40  96 NW6       29.97R
$$

MAZALL-181200-
CENTRAL AND WESTERN MASSACHUSETTS

CITY           SKY/WX    TMP DP  RH WIND       PRES   REMARKS
WORCESTER      CLEAR     52  43  71 W10       29.97S
FITCHBURG      CLEAR     48  43  82 N7        29.98R
ORANGE         FOG       42  41  96 CALM      29.99R VSB 1/4
SPRINGFIELD    PTCLDY    37  37  97 NE3       29.98S FOG
WESTFIELD      CLEAR     42  40  92 CALM      29.99R FOG
NORTH ADAMS    FOG       42  42 100 E3        30.02R VSB 1/4
PITTSFIELD     FOG       40  40 100 CALM      30.00R VSB<1/4
$$

RIZALL-181200-
RHODE ISLAND

CITY           SKY/WX    TMP DP  RH WIND       PRES   REMARKS
PROVIDENCE     PTCLDY    49  45  86 CALM      29.97S
NEWPORT        CLEAR     50  47  89 CALM      29.97R
BLOCK ISLAND   CLEAR     55  50  82 NW3       29.97R
SMITHFIELD     CLEAR     43  36  75 CALM      29.97R
WESTERLY       CLEAR     45  43  93 CALM      29.98R
$$

CTZALL-181200-
CONNECTICUT

CITY           SKY/WX    TMP DP  RH WIND       PRES   REMARKS
BRADLEY INTL   PTCLDY    45  41  86 CALM      29.99R
HARTFORD       FOG       47  46  97 MISG      30.00R VSB<1/4
BRIDGEPORT     CLEAR     52  48  86 CALM      29.99R
DANBURY        PTCLDY    43  41  93 CALM      30.02R
GROTON         CLEAR     47  46  97 N5        29.98R
NEW HAVEN      PTCLDY    51  45  79 CALM      29.99R
CHESTER        FAIR      48  46  93 CALM      29.99R
MERIDEN        CLEAR     45  42  89 CALM      30.00R
WILLIMANTIC    PTCLDY    42  40  92 CALM      30.00R
OXFORD         PTCLDY    48  41  76 N3        30.00R
$$

MEZ002-015-021-024-NHZ003-005-008-011-012-014-VTZ005-008-181200-
NORTHERN NEW ENGLAND

CITY           SKY/WX    TMP DP  RH WIND       PRES   REMARKS
PORTLAND ME    PTCLDY    46  43  89 SW8       29.94R
BANGOR ME      FOG       48  47  96 SW3       29.92R VSB 1/4
CONCORD NH     CLOUDY    39  38  96 CALM      29.97R FOG
MANCHESTER NH  PTCLDY    45  40  82 CALM      29.96R
NASHUA NH      CLEAR     41  40  96 CALM      29.98R
PORTSMOUTH NH  PTCLDY    47  46  93 W5        29.94R
JAFFREY NH     PTCLDY    40  39  97 S5        29.98S
KEENE NH       CLOUDY    43  36  75 CALM      30.00R VSB 1/4
BURLINGTON VT  CLOUDY    53  50  89 N9        29.99R
MT. WASHINGTON FOG       34  34 100 NW49        N/A  VSB 0   WCI  17
$$

NYZ052-076-181200-
EASTERN NEW YORK

CITY           SKY/WX    TMP DP  RH WIND       PRES   REMARKS
ALBANY         PTCLDY    45  42  89 CALM      30.00R
NEW YORK CITY  PTCLDY    61  50  67 NW5       29.98R
$$

ANZALL-181200-
MARINE OBSERVATIONS

STATION/POSITION TIME  TEMP    WIND        PRES    VSBY  WAVE
                       AIR SEA DIR/SP/G                  HT/PER
                 (UTC) (F)     (DEG/KT/KT) (MB)    (MI)  (FT/S)
BOSTON BUOY      1050   58 61  280/ 10/ 10 1014.4R         3/11
BUZZARDS BAY     1000          320/  9/  9 1015.1R
NANTUCKET SOUND  1050   65 68  310/ 12/ 12 1014.1R         1/11
MASS BAY-STELLWA 1004   58 60  280/ 12/ 14   N/A    1 7/8
ISLE OF SHOALS   1100   54     260/ 10/ 11 1013.5R
S OF BLOCK IS    1038      68                N/A           4/13
$$

......................KEY.........................
  SKY/WX - SKY CONDITION/PRESENT WEATHER
  TMP    - TEMPERATURE IN FAHRENHEIT
  DWPT   - DEWPOINT IN FAHRENHEIT
  RH     - RELATIVE HUMIDITY IN PERCENT
  WIND   - DIRECTION AND SPEED IN MPH
  PRES   - MEAN SEA LEVEL PRESSURE IN INCHES OF HG
  WCI    - WIND CHILL INDEX
  VSB    - VISIBILITY IN MILES
  HX     - HEAT INDEX
  TC     - TEMPERATURE IN CELSIUS
  VRB    - VARIABLE WIND DIRECTION
  N/A    - NOT AVAILABLE


USA.gov is the U.S. government's official web portal to all federal, state and local government web resources and services.